Location: Unspecified
(0.0000°N, 0.0000°E)
Time: 13:43:29
(UTC+00:00)

Vanguard 2 - Pass Details

Date: 24 November 2019
Orbit: 553 x 2938 km, 32.9° (Epoch: 08 December)

Event Time Altitude Azimuth Distance (km) Brightness Sun altitude
Rises 14:19:23 0° 315° (NW) 2,861 10.6 47.4°
Reaches altitude 10° 14:21:49 10° 322° (NW) 1,858 9.7 46.9°
Maximum altitude 14:25:38 43° 35° (NE) 771 7.7 46.0°
Drops below altitude 10° 14:29:38 10° 108° (ESE) 1,936 9.4 45.2°
Sets 14:32:12 0° 115° (ESE) 3,001 10.3 44.6°
